Location: Dvur Kralove nad Labem
(50.4330°N, 15.8170°E)
Time: 22:06:56
(UTC+02:00)

ISS - Pass Details

Date: 21 May 2022
Orbit: 414 x 420 km, 51.6° (Epoch: 30 June)

Event Time Altitude Azimuth Distance (km) Brightness Sun altitude
Rises 23:07:15 0° 283° (WNW) 2,369 0.6 -15.5°
Reaches altitude 10° 23:09:21 10° 284° (WNW) 1,502 -0.4 -15.6°
Maximum altitude 23:12:44 87° 8° (N) 423 -3.8 -15.8°
Enters shadow 23:14:32 25° 103° (ESE) 875 -2.5 -16.0°
